Change the Weather History Date:

Friday, February 28, 2014

  Actual Average Record
Temperature  
Mean Temperature 64 °F -  
Max Temperature 74 °F 85 °F 91 °F (2004)
Min Temperature 54 °F 61 °F 51 °F (2008)
Degree Days  
Heating Degree Days 1    
Growing Degree Days 14 (Base 50)    
Moisture  
Dew Point 62 °F    
Average Humidity 83    
Maximum Humidity 100    
Minimum Humidity 59    
Precipitation  
Precipitation 0.00 in - - ()
Sea Level Pressure  
Sea Level Pressure 29.89 in    
Wind  
Wind Speed 5 mph ()    
Max Wind Speed 9 mph    
Max Gust Speed -    
Visibility 1.5 miles    
Events Fog    
Averages and records for this station are not official NWS values.
T = Trace of Precipitation, MM = Missing Value Source: Averaged Metar Reports

Daily Weather History Graph

Daily Weather History Graph

Search for Another Location

Airport or City:

Trip Planner

Search our weather history database for the weather conditions in past years. The results will help you decide how hot, cold, wet, or windy it might be!

Date:

Astronomy

Feb. 28, 2014 Rise Set
Actual Time 6:31 AM IST 6:06 PM IST
Civil Twilight 6:08 AM IST 6:30 PM IST
Nautical Twilight 5:41 AM IST 6:57 PM IST
Astronomical Twilight 5:14 AM IST 7:23 PM IST
Moon 5:22 AM IST (2/28) 5:11 PM IST (2/28)
Length of Visible Light 12h 21m
Length of Day
11h 35m
Waning Crescent, 2% of the Moon is Illuminated
Feb 28
Waning Crescent
Mar 1
New
Mar 8
First Quarter
Mar 16
Full
Mar 24
Last Quarter

Hourly Weather History & Observations

Time (IST) Temp. Dew Point Humidity Pressure Visibility Wind Dir Wind Speed Gust Speed Precip Events Conditions
12:00 AM 64.4 °F 60.8 °F 88% 29.89 in 1.9 mi ESE 5.8 mph - N/A   Haze
1:00 AM 62.6 °F 60.8 °F 94% 29.89 in 1.6 mi SE 4.6 mph - N/A   Scattered Clouds
2:00 AM 62.6 °F 59.0 °F 88% 29.89 in 1.6 mi SE 3.5 mph - N/A   Mist
2:30 AM 61 °F 59 °F 92% 29.90 in 1 mi SE 4.6 mph - -   Mist
3:00 AM 60.8 °F 59.0 °F 94% 29.89 in 1.2 mi SE 3.5 mph - N/A   Partly Cloudy
4:00 AM 60.8 °F 59.0 °F 94% 29.86 in 1.9 mi SE 3.5 mph - N/A   Partly Cloudy
5:00 AM 59.0 °F 57.2 °F 94% 29.89 in 1.2 mi ENE 2.3 mph - N/A   Partly Cloudy
5:30 AM 60 °F 58 °F 93% 29.90 in 1 mi 2.3 mph - -   Mist
5:30 AM 59.0 °F 59.0 °F 100% 29.86 in 1.2 mi Variable 2.3 mph - N/A   Partly Cloudy
6:00 AM 59.0 °F 59.0 °F 100% 29.89 in 1.2 mi NE 3.5 mph - N/A   Partly Cloudy
7:30 AM 60.8 °F 60.8 °F 100% 29.92 in 0.1 mi East 5.8 mph - N/A Fog Fog
8:00 AM 60.8 °F 60.8 °F 100% 29.95 in 0.2 mi East 5.8 mph - N/A Fog Fog
8:30 AM 62 °F 61 °F 97% 29.98 in 0 mi East 6.9 mph - - Fog Heavy Fog
9:30 AM 62.6 °F 60.8 °F 94% 29.98 in 1.2 mi East 6.9 mph - N/A   Mostly Cloudy
10:30 AM 68.0 °F 62.6 °F 83% 29.98 in 1.6 mi East 8.1 mph - N/A   Mostly Cloudy
11:00 AM 68.0 °F 62.6 °F 83% 29.98 in 1.6 mi East 8.1 mph - N/A   Overcast
11:30 AM 68 °F 61 °F 72% 30.00 in 1 mi East 8.1 mph - -   Mist
11:30 AM 68.0 °F 60.8 °F 78% 29.98 in 1.6 mi East 8.1 mph - N/A   Overcast
12:00 PM 68.0 °F 60.8 °F 78% 29.95 in 1.6 mi ESE 8.1 mph - N/A   Haze
12:30 PM 69.8 °F 62.6 °F 78% 29.95 in 1.6 mi ESE 8.1 mph - N/A   Haze
1:30 PM 71.6 °F 62.6 °F 73% 29.89 in 1.9 mi East 9.2 mph - N/A   Mostly Cloudy
2:00 PM 71.6 °F 62.6 °F 73% 29.89 in 1.9 mi East 9.2 mph - N/A   Haze
2:30 PM 73 °F 62 °F 59% 29.89 in 1 mi ESE 6.9 mph - -   Haze
2:30 PM 73.4 °F 62.6 °F 69% 29.89 in 1.9 mi ESE 6.9 mph - N/A   Haze
3:00 PM 73.4 °F 62.6 °F 69% 29.86 in 1.9 mi SE 6.9 mph - N/A   Haze
3:30 PM 73.4 °F 62.6 °F 69% 29.83 in 1.9 mi East 5.8 mph - N/A   Haze
4:00 PM 73.4 °F 62.6 °F 69% 29.83 in 1.9 mi East 5.8 mph - N/A   Haze
4:30 PM 73.4 °F 62.6 °F 69% 29.83 in 1.9 mi ESE 8.1 mph - N/A   Haze
5:00 PM 71.6 °F 62.6 °F 73% 29.83 in 1.9 mi ESE 6.9 mph - N/A   Haze
5:30 PM 72 °F 63 °F 65% 29.83 in 1 mi ESE 6.9 mph - -   Haze
5:30 PM 71.6 °F 62.6 °F 73% 29.80 in 1.9 mi ESE 6.9 mph - N/A   Haze
6:00 PM 71.6 °F 62.6 °F 73% 29.83 in 1.9 mi ESE 6.9 mph - N/A   Haze
6:30 PM 69.8 °F 62.6 °F 78% 29.83 in 1.9 mi ESE 6.9 mph - N/A   Haze
7:00 PM 68.0 °F 64.4 °F 88% 29.83 in 1.9 mi East 4.6 mph - N/A   Mostly Cloudy
8:00 PM 68.0 °F 64.4 °F 88% 29.86 in 1.9 mi ESE 4.6 mph - N/A   Overcast
8:30 PM 68 °F 64 °F 81% 29.89 in 2 mi SE 6.9 mph - -   Mist
8:30 PM 68.0 °F 62.6 °F 83% 29.86 in 1.9 mi SE 6.9 mph - N/A   Mostly Cloudy
9:00 PM 68.0 °F 62.6 °F 83% 29.86 in 1.9 mi ESE 9.2 mph - N/A   Mostly Cloudy
10:00 PM 66.2 °F 62.6 °F 88% 29.86 in 1.9 mi ESE 4.6 mph - N/A   Scattered Clouds
11:00 PM 64.4 °F 62.6 °F 94% 29.86 in 1.2 mi SSE 4.6 mph - N/A   Scattered Clouds
11:30 PM 64 °F 61 °F 88% 29.89 in 1 mi SE 5.8 mph - -   Mist